Content
SEND FEEDBACK

Daily
Averages
Monthly
Summary
United States of America

EL PASO, TEXAS


Home > North America > United States > Texas
Elevation: 3918 feet     Latitude: 31 48N     Longitude: 106 24W

WEATHER
 
SELECT A DAY
Number of Records: 171,958;   Date Range: 1/1/95 - 7/29/14
 
SHARE

PRINT THIS DATA

[ ← Previous Day ]
WEATHER ALMANAC - MAY 11, 2013
[ Next Day → ]
[ °C ]   °F
Weather ElementAverageHighLow
Temperature63.8 °F75 °F (5:51 pm)51.1 °F (5:51 am)
Dewpoint41 °F46 °F (9:51 am)28 °F (6:51 pm)
Humidity47 %74 % (5:51 am)18 % (6:51 pm)
Barometer30.10 in30.21 in (7:44 pm)30.03 in (5:51 pm)
Wind Speed9.8 mph18.4 mph (7:44 pm)
Wind Gust27.6 mph (7:44 pm)
Weather ElementAverage
Visibility10 mi
Wind DirectionESE (112.1 °)

Weather ElementTotal
Precipitation---
Heating Degree Days2 (Base 65)
Growing Degree Days13.1 (Base 50)
Averaged from 24 records on May 11, 2013
WEATHER CONDITIONS BREAKOUT
WIND DIRECTION BREAKOUT
WEATHER BY HOUR - MAY 11, 2013
[ °C ]   °F
Local TimeTemperatureDewpointHumidityBarometerVisibilityWind DirectionWind SpeedGust SpeedPrecipitationEventsConditions
1:51 AM55.0 °F45.0 °F69 %30.06 in10.0 miNorth (360°)10.4 mphPartly Cloudy
2:51 AM55.0 °F44.1 °F67 %30.05 in10.0 miNorth (360°)8.1 mphPartly Cloudy
3:51 AM54.0 °F44.1 °F69 %30.06 in10.0 miNorth (10°)8.1 mphPartly Cloudy
4:51 AM53.1 °F44.1 °F71 %30.09 in10.0 miNorth (10°)9.2 mphPartly Cloudy
5:51 AM51.1 °F43.0 °F74 %30.11 in10.0 miNNE (20°)4.6 mphScattered Clouds
6:51 AM53.1 °F43.0 °F69 %30.14 in10.0 miNorth (360°)6.9 mphPartly Cloudy
7:51 AM55.9 °F44.1 °F64 %30.16 in10.0 miNorth (10°)8.1 mphScattered Clouds
8:51 AM57.9 °F45.0 °F62 %30.17 in10.0 miEast (80°)3.5 mphScattered Clouds
9:51 AM62.1 °F46.0 °F56 %30.15 in10.0 miENE (60°)8.1 mphMostly Cloudy
10:51 AM64.9 °F45.0 °F48 %30.15 in10.0 miEast (80°)12.7 mph16.1 mphMostly Cloudy
11:51 AM66.9 °F43.0 °F42 %30.14 in10.0 miEast (100°)13.8 mphMostly Cloudy
12:51 PM70.0 °F43.0 °F38 %30.13 in10.0 miESE (120°)10.4 mphMostly Cloudy
1:51 PM72.0 °F39.9 °F31 %30.09 in10.0 miVariable5.8 mphMostly Cloudy
2:51 PM73.9 °F36.0 °F25 %30.06 in10.0 miEast (100°)12.7 mph18.4 mphMostly Cloudy
3:51 PM73.9 °F35.1 °F24 %30.05 in10.0 miEast (100°)13.8 mph25.3 mphMostly Cloudy
4:51 PM73.9 °F34.0 °F23 %30.04 in10.0 miEast (90°)8.1 mphMostly Cloudy
5:51 PM75.0 °F30.9 °F20 %30.03 in10.0 miENE (70°)12.7 mph20.7 mphMostly Cloudy
6:51 PM73.9 °F28.0 °F18 %30.03 in10.0 miEast (100°)15.0 mphScattered Clouds
7:44 PM66.2 °F42.8 °F43 %30.21 in10.0 miSE (140°)18.4 mph27.6 mphMostly Cloudy
7:51 PM66.9 °F42.1 °F40 %30.07 in10.0 miSSE (150°)17.3 mph26.5 mphMostly Cloudy
8:51 PM64.9 °F44.1 °F47 %30.10 in10.0 miSE (140°)11.5 mphScattered Clouds
9:51 PM64.0 °F42.1 °F45 %30.12 in10.0 miCalmScattered Clouds
10:51 PM64.0 °F41.0 °F43 %30.13 in10.0 miSE (130°)5.8 mphPartly Cloudy
11:51 PM63.0 °F37.9 °F40 %30.14 in10.0 miEast (100°)9.2 mphPartly Cloudy
Hourly data recorded from KELP, located miles away from El Paso, Texas







STORIES FROM OUR PARTNERS